Weather in Chernogorskaya

Russia / Komi Republic     65°01′14″N   52°18′53″E
temp.,
°C
wind,
m/s
gust,
m/s
humid.,
%
clouds,
%
prec.,
mm/h
press.,
hPa
HPBL,
m
12 april, mon
mon1200:00+1wsw613735 0.1 10201003
03:000wsw6147410 0.1 1021926
06:00+1wsw71579100 0.0 10231368
09:00+3w6137790 0.1 10251415
12:00+3w6127715 0.2 10281346
15:00+5wsw61272100 0.3 10291472
18:00+4wsw51272100 0.0 1029751
21:00+3sw51471100 0.0 1029654
13 april, tue
tue1300:00+2sw31093100 0.2 1028450
03:00+2sw31091100 0.4 1026459
06:00+5sw41393100 0.1 1025679
09:00+6sw51392100 0.1 1024660
12:00+9sw51379100 0.0 1021867
15:00+6sw41189100 1.7 1020779
18:00+6wsw41191100 0.3 1019659
21:00+6wsw3993100 0.3 1019439
14 april, wed
wed1400:00+6wsw31093100 0.0 1019394
03:00+5sw3795100 0.0 1019234
06:00+5ssw3893100 0.0 1019251
09:00+9sw4880100 0.0 1017978
12:00+10sw4980100 0.0 1016900
15:00+10sw51079100 0.1 1014760
18:00+9sw41188100 0.3 1012643
21:00+9wnw51093100 4.4 1009630
15 april, thu
thu1500:00+2nw3998100 2.6 1013424
03:00+2w2998100 4.9 1013499
06:00+2wnw4976100 0.3 10151008
09:00+2nw696281 0.3 10171337
12:00+2nw585797 0.0 10201495
15:00+2nw5754100 0.1 10221713
18:00+1nnw355996 0.1 10241126
21:00−2ne367977 0.1 1026502
16 april, fri
fri1600:00−3ene247444 0.0 1027608
03:00−4ene23655 0.0 1029589
06:00−4e236048 0.0 1030646
09:00−1e1145100 0.0 1030832
12:00+1se2236100 0.0 1029975
15:00+2ssw1237100 0.0 10291193
18:000sse2353100 0.0 102852
21:00−1ssw2764100 0.1 1027307